When you browse on this site, cookies collect data to enhance your experience and personalize the content and advertising you see.
Visit our Privacy Policy to learn more. By continuing to use the site, you agree to this use of cookies and data.
  • In Schweiz
  • Länderverzeichnis
  • Für 7 Tage
  • Wassertemperatur
  • Satellitenkarten
  • Wetterkarte
  • Widgets
  • user-avatar
    Anmelden

    Stündliche Wetter Shondrovo

    Heute, 20 Juni, Donnerstag

    Zeit Temperatur Niederschläge Wind Luftdruck Luftfeuchtigkeit
    00:00 +18°C° 0 mm 1 m/S 742 mmHg 78%
    01:00 +18°C° 0 mm 1 m/S 742 mmHg 79%
    02:00 +16°C° 0 mm 1 m/S 742 mmHg 81%
    03:00 +16°C° 0 mm 2 m/S 743 mmHg 82%
    04:00 +18°C° 0 mm 1 m/S 743 mmHg 82%
    05:00 +19°C° 0 mm 1 m/S 743 mmHg 81%
    06:00 +17°C° 0 mm 0 m/S 743 mmHg 81%
    07:00 +19°C° 0 mm 0 m/S 743 mmHg 76%
    08:00 +20°C° 0 mm 0 m/S 743 mmHg 71%
    09:00 +22°C° 0 mm 0 m/S 743 mmHg 66%
    10:00 +23°C° 0 mm 0 m/S 743 mmHg 61%
    11:00 +24°C° 0 mm 0 m/S 743 mmHg 56%
    12:00 +25°C° 0 mm 0 m/S 743 mmHg 51%
    13:00 +26°C° 0 mm 0 m/S 743 mmHg 49%
    14:00 +26°C° 0 mm 0 m/S 743 mmHg 48%
    15:00 +28°C° 0 mm 1 m/S 743 mmHg 47%
    16:00 +28°C° 0 mm 1 m/S 743 mmHg 52%
    17:00 +27°C° 0 mm 1 m/S 743 mmHg 56%
    18:00 +27°C° 0 mm 1 m/S 743 mmHg 61%
    19:00 +25°C° 0 mm 1 m/S 743 mmHg 64%
    20:00 +23°C° 0 mm 1 m/S 743 mmHg 68%
    21:00 +21°C° 0 mm 1 m/S 743 mmHg 71%
    22:00 +21°C° 0 mm 1 m/S 743 mmHg 73%
    23:00 +20°C° 0 mm 1 m/S 743 mmHg 74%

    Morgen, 21 Juni, Freitag

    Zeit Temperatur Niederschläge Wind Luftdruck Luftfeuchtigkeit
    00:00 +19°C° 0 mm 1 m/S 743 mmHg 76%
    01:00 +19°C° 0 mm 1 m/S 743 mmHg 77%
    02:00 +19°C° 0 mm 1 m/S 743 mmHg 78%
    03:00 +18°C° 0 mm 1 m/S 744 mmHg 79%
    04:00 +19°C° 0 mm 1 m/S 744 mmHg 80%
    05:00 +19°C° 0 mm 1 m/S 744 mmHg 81%
    06:00 +20°C° 0 mm 1 m/S 744 mmHg 82%
    07:00 +22°C° 0 mm 1 m/S 744 mmHg 77%
    08:00 +23°C° 0 mm 2 m/S 744 mmHg 72%
    09:00 +25°C° 0 mm 2 m/S 744 mmHg 68%
    10:00 +26°C° 0 mm 3 m/S 744 mmHg 64%
    11:00 +26°C° 0 mm 3 m/S 744 mmHg 60%
    12:00 +27°C° 0 mm 3 m/S 744 mmHg 57%
    13:00 +27°C° 0 mm 3 m/S 744 mmHg 57%
    14:00 +28°C° 0 mm 3 m/S 744 mmHg 57%
    15:00 +28°C° 0 mm 3 m/S 743 mmHg 57%
    16:00 +27°C° 0 mm 3 m/S 743 mmHg 61%
    17:00 +27°C° 0 mm 3 m/S 743 mmHg 65%
    18:00 +27°C° 0 mm 2 m/S 743 mmHg 69%
    19:00 +25°C° 0.1 mm 2 m/S 743 mmHg 73%
    20:00 +24°C° 0.1 mm 2 m/S 743 mmHg 77%
    21:00 +21°C° 0.1 mm 2 m/S 743 mmHg 80%
    22:00 +20°C° 0 mm 2 m/S 743 mmHg 82%
    23:00 +20°C° 0 mm 2 m/S 743 mmHg 84%

    übermorgen, 22 Juni, Samstag

    Zeit Temperatur Niederschläge Wind Luftdruck Luftfeuchtigkeit
    00:00 +19°C° 0 mm 3 m/S 743 mmHg 85%
    01:00 +19°C° 0 mm 3 m/S 743 mmHg 86%
    02:00 +19°C° 0 mm 3 m/S 743 mmHg 86%
    03:00 +18°C° 0 mm 3 m/S 743 mmHg 86%
    04:00 +19°C° 0 mm 3 m/S 743 mmHg 86%
    05:00 +19°C° 0 mm 3 m/S 743 mmHg 86%
    06:00 +19°C° 0 mm 3 m/S 744 mmHg 86%
    07:00 +21°C° 0 mm 3 m/S 744 mmHg 82%
    08:00 +22°C° 0 mm 4 m/S 744 mmHg 78%
    09:00 +25°C° 0 mm 4 m/S 744 mmHg 74%
    10:00 +26°C° 0.1 mm 4 m/S 744 mmHg 70%
    11:00 +27°C° 0.1 mm 5 m/S 744 mmHg 66%
    12:00 +28°C° 0.1 mm 5 m/S 744 mmHg 61%
    13:00 +28°C° 0 mm 5 m/S 743 mmHg 61%
    14:00 +29°C° 0 mm 5 m/S 743 mmHg 60%
    15:00 +29°C° 0 mm 5 m/S 743 mmHg 59%
    16:00 +28°C° 0 mm 4 m/S 743 mmHg 64%
    17:00 +28°C° 0 mm 4 m/S 743 mmHg 68%
    18:00 +28°C° 0 mm 4 m/S 743 mmHg 72%
    19:00 +26°C° 0 mm 3 m/S 743 mmHg 76%
    20:00 +24°C° 0 mm 3 m/S 743 mmHg 80%
    21:00 +22°C° 0 mm 3 m/S 743 mmHg 85%
    22:00 +21°C° 0 mm 3 m/S 743 mmHg 86%
    23:00 +21°C° 0 mm 3 m/S 743 mmHg 87%

    23 Juni, Sonntag

    Zeit Temperatur Niederschläge Wind Luftdruck Luftfeuchtigkeit
    00:00 +20°C° 0 mm 3 m/S 743 mmHg 88%
    01:00 +20°C° 0 mm 3 m/S 743 mmHg 89%
    02:00 +19°C° 0 mm 3 m/S 743 mmHg 90%
    03:00 +19°C° 0 mm 3 m/S 743 mmHg 91%
    04:00 +19°C° 0 mm 2 m/S 743 mmHg 90%
    05:00 +20°C° 0 mm 2 m/S 743 mmHg 89%
    06:00 +20°C° 0 mm 2 m/S 743 mmHg 88%
    07:00 +23°C° 0.1 mm 2 m/S 744 mmHg 84%
    08:00 +24°C° 0.1 mm 2 m/S 744 mmHg 79%
    09:00 +26°C° 0.1 mm 2 m/S 744 mmHg 74%
    10:00 +27°C° 0.2 mm 3 m/S 744 mmHg 70%
    11:00 +27°C° 0.2 mm 3 m/S 744 mmHg 66%
    12:00 +28°C° 0.2 mm 3 m/S 744 mmHg 62%
    13:00 +28°C° 0.6 mm 3 m/S 744 mmHg 63%
    14:00 +28°C° 0.6 mm 4 m/S 744 mmHg 64%
    15:00 +28°C° 0.6 mm 4 m/S 744 mmHg 66%
    16:00 +27°C° 0.9 mm 3 m/S 744 mmHg 70%
    17:00 +26°C° 0.9 mm 3 m/S 744 mmHg 75%
    18:00 +26°C° 0.9 mm 3 m/S 744 mmHg 79%
    19:00 +24°C° 0.1 mm 3 m/S 744 mmHg 82%
    20:00 +21°C° 0.1 mm 3 m/S 744 mmHg 84%
    21:00 +20°C° 0.1 mm 3 m/S 745 mmHg 87%
    22:00 +19°C° 0 mm 3 m/S 745 mmHg 87%
    23:00 +19°C° 0 mm 3 m/S 745 mmHg 87%

    24 Juni, Montag

    Zeit Temperatur Niederschläge Wind Luftdruck Luftfeuchtigkeit
    00:00 +18°C° 0 mm 3 m/S 745 mmHg 87%
    01:00 +17°C° 0 mm 3 m/S 745 mmHg 83%
    02:00 +16°C° 0 mm 3 m/S 745 mmHg 80%
    03:00 +16°C° 0 mm 3 m/S 746 mmHg 77%
    04:00 +16°C° 0 mm 3 m/S 746 mmHg 78%
    05:00 +16°C° 0 mm 3 m/S 746 mmHg 79%
    06:00 +16°C° 0 mm 3 m/S 746 mmHg 79%
    07:00 +17°C° 0 mm 4 m/S 746 mmHg 75%
    08:00 +18°C° 0 mm 4 m/S 747 mmHg 70%
    09:00 +17°C° 0 mm 5 m/S 747 mmHg 66%
    10:00 +20°C° 0 mm 5 m/S 747 mmHg 63%
    11:00 +21°C° 0 mm 5 m/S 747 mmHg 60%
    12:00 +22°C° 0 mm 5 m/S 747 mmHg 56%
    13:00 +22°C° 0 mm 5 m/S 747 mmHg 57%
    14:00 +22°C° 0 mm 5 m/S 747 mmHg 57%
    15:00 +22°C° 0 mm 5 m/S 747 mmHg 57%
    16:00 +22°C° 0 mm 4 m/S 747 mmHg 60%
    17:00 +22°C° 0 mm 4 m/S 747 mmHg 63%
    18:00 +22°C° 0 mm 3 m/S 747 mmHg 66%
    19:00 +20°C° 0 mm 3 m/S 747 mmHg 69%
    20:00 +19°C° 0 mm 3 m/S 747 mmHg 72%
    21:00 +17°C° 0 mm 2 m/S 747 mmHg 76%
    22:00 +16°C° 0 mm 2 m/S 747 mmHg 75%
    23:00 +16°C° 0 mm 2 m/S 747 mmHg 74%

    25 Juni, Dienstag

    Zeit Temperatur Niederschläge Wind Luftdruck Luftfeuchtigkeit
    00:00 +15°C° 0 mm 2 m/S 748 mmHg 73%
    01:00 +15°C° 0 mm 2 m/S 748 mmHg 75%
    02:00 +14°C° 0 mm 2 m/S 748 mmHg 78%
    03:00 +13°C° 0 mm 3 m/S 748 mmHg 80%
    04:00 +14°C° 0 mm 2 m/S 748 mmHg 80%
    05:00 +14°C° 0 mm 2 m/S 748 mmHg 80%
    06:00 +14°C° 0 mm 2 m/S 748 mmHg 80%
    07:00 +16°C° 0 mm 2 m/S 748 mmHg 75%
    08:00 +18°C° 0 mm 3 m/S 748 mmHg 69%
    09:00 +19°C° 0 mm 3 m/S 748 mmHg 64%
    10:00 +20°C° 0 mm 3 m/S 748 mmHg 60%
    11:00 +21°C° 0 mm 2 m/S 748 mmHg 56%
    12:00 +23°C° 0 mm 2 m/S 748 mmHg 53%
    13:00 +23°C° 0 mm 2 m/S 748 mmHg 52%
    14:00 +23°C° 0 mm 2 m/S 747 mmHg 52%
    15:00 +23°C° 0 mm 2 m/S 747 mmHg 52%
    16:00 +23°C° 0 mm 1 m/S 747 mmHg 54%
    17:00 +23°C° 0 mm 1 m/S 747 mmHg 56%
    18:00 +23°C° 0 mm 1 m/S 746 mmHg 58%
    19:00 +21°C° 0 mm 1 m/S 746 mmHg 63%
    20:00 +19°C° 0 mm 1 m/S 746 mmHg 68%
    21:00 +18°C° 0 mm 1 m/S 746 mmHg 73%
    22:00 +16°C° 0 mm 1 m/S 746 mmHg 75%
    23:00 +15°C° 0 mm 1 m/S 746 mmHg 76%
    Mehr zeigen